TimePDT,TemperatureF,Dew PointF,Humidity,Sea Level PressureIn,VisibilityMPH,Wind Direction,Wind SpeedMPH,Gust SpeedMPH,PrecipitationIn,Events,Conditions,WindDirDegrees,DateUTC
12:52 AM,43.0,26.1,51,29.96,-9999.0,NE,5.8,-,N/A,,Unknown,50,2013-10-08 07:52:00
1:52 AM,41.0,28.0,60,29.98,-9999.0,NNE,4.6,-,N/A,,Unknown,20,2013-10-08 08:52:00
2:52 AM,37.0,27.0,67,30.00,-9999.0,East,3.5,-,N/A,,Unknown,80,2013-10-08 09:52:00
3:52 AM,34.0,26.1,73,30.00,-9999.0,South,6.9,-,N/A,,Unknown,190,2013-10-08 10:52:00
4:52 AM,34.0,26.1,73,30.02,-9999.0,WSW,8.1,-,N/A,,Unknown,240,2013-10-08 11:52:00
5:52 AM,30.9,26.1,82,30.04,-9999.0,South,4.6,-,N/A,,Unknown,180,2013-10-08 12:52:00
7:52 AM,37.0,28.9,73,30.05,-9999.0,SW,8.1,-,N/A,,Unknown,220,2013-10-08 14:52:00
8:52 AM,43.0,28.9,58,30.04,-9999.0,Variable,3.5,-,N/A,,Unknown,0,2013-10-08 15:52:00
9:52 AM,46.0,28.0,50,30.03,-9999.0,Variable,3.5,-,N/A,,Unknown,0,2013-10-08 16:52:00
10:52 AM,48.0,28.0,46,30.01,-9999.0,Variable,3.5,-,N/A,,Unknown,0,2013-10-08 17:52:00
11:52 AM,50.0,28.0,43,29.99,-9999.0,Variable,4.6,-,N/A,,Unknown,0,2013-10-08 18:52:00
12:52 PM,53.1,28.0,38,29.96,-9999.0,Variable,4.6,-,N/A,,Unknown,0,2013-10-08 19:52:00
1:52 PM,54.0,26.1,34,29.94,-9999.0,NW,8.1,-,N/A,,Unknown,320,2013-10-08 20:52:00
2:52 PM,53.1,25.0,34,29.94,-9999.0,Variable,4.6,-,N/A,,Unknown,0,2013-10-08 21:52:00
3:52 PM,53.1,24.1,32,29.92,-9999.0,NNW,6.9,-,N/A,,Unknown,340,2013-10-08 22:52:00
4:52 PM,52.0,24.1,34,29.91,-9999.0,North,5.8,-,N/A,,Unknown,360,2013-10-08 23:52:00
5:52 PM,50.0,27.0,41,29.91,-9999.0,North,8.1,-,N/A,,Unknown,10,2013-10-09 00:52:00
6:52 PM,48.0,28.0,46,29.91,-9999.0,NE,5.8,-,N/A,,Unknown,40,2013-10-09 01:52:00
7:52 PM,46.0,28.0,50,29.90,-9999.0,ENE,5.8,-,N/A,,Unknown,70,2013-10-09 02:52:00
8:52 PM,45.0,30.0,56,29.88,-9999.0,North,16.1,-,N/A,,Unknown,360,2013-10-09 03:52:00
9:52 PM,44.1,33.1,65,29.87,-9999.0,North,11.5,-,N/A,,Unknown,360,2013-10-09 04:52:00
10:52 PM,43.0,33.1,68,29.86,-9999.0,NNE,10.4,-,N/A,,Unknown,20,2013-10-09 05:52:00
11:52 PM,41.0,34.0,76,29.85,-9999.0,North,8.1,-,N/A,,Unknown,10,2013-10-09 06:52:00